Location: Newark
(58.8333°N, 23.5833°E)
Time: 10:32:43
(UTC+00:00)

Vanguard 2 - Pass Details

Date: 27 November 2019
Orbit: 553 x 2938 km, 32.9° (Epoch: 09 December)

Event Time Altitude Azimuth Distance (km) Brightness Sun altitude
Rises 04:22:23 0° 217° (SW) 6,496 12.0 -16.7°
Reaches altitude 10° 04:29:39 10° 199° (SSW) 5,084 11.7 -15.8°
Maximum altitude 04:36:13 15° 171° (S) 4,197 11.6 -15.0°
Drops below altitude 10° 04:41:42 10° 142° (SE) 4,103 12.1 -14.3°
Sets 04:46:24 0° 120° (ESE) 4,615 13.2 -13.7°
